Date,TemperatureHighF,TemperatureAvgF,TemperatureLowF,DewpointHighF,DewpointAvgF,DewpointLowF,HumidityHigh,HumidityAvg,HumidityLow,PressureMaxIn,PressureMinIn,WindSpeedMaxMPH,WindSpeedAvgMPH,GustSpeedMaxMPH,PrecipitationSumIn
2013-2-1,21,10,2,16,4,-3,82,76,66,30.43,30.21,15,8,22,0.00
2013-2-2,27,19,9,25,16,5,93,88,80,30.22,30.03,10,4,16,0.00
2013-2-3,26,21,12,21,17,9,95,84,71,30.09,29.98,13,5,19,0.00
2013-2-4,34,27,19,29,23,16,90,87,83,30.05,29.83,9,5,16,0.00
2013-2-5,35,27,16,32,25,14,93,90,85,30.10,29.83,11,4,18,0.00
2013-2-6,42,34,23,35,30,21,92,85,70,30.22,30.09,8,4,12,0.00
2013-2-7,36,34,33,35,33,31,98,96,91,30.09,29.84,11,5,15,0.74
2013-2-8,32,28,24,31,26,22,96,91,88,30.40,29.97,10,4,17,0.02
2013-2-9,34,31,27,32,28,25,93,89,84,30.39,30.06,11,6,17,0.00
2013-2-10,47,41,33,46,39,30,97,93,72,30.07,29.49,18,11,29,0.30
2013-2-11,45,34,31,38,28,26,84,78,71,30.07,29.54,22,15,37,0.03
2013-2-12,34,30,27,28,26,23,94,85,75,30.12,29.93,12,5,19,0.00
2013-2-13,45,35,27,37,31,25,94,86,68,29.93,29.74,10,4,16,0.00
2013-2-14,41,37,34,35,33,30,90,84,76,29.99,29.67,14,7,23,0.00
2013-2-15,34,30,24,31,23,16,92,76,55,30.21,29.99,10,6,15,0.00
2013-2-16,26,20,15,17,12,9,80,72,58,30.21,30.14,10,6,20,0.00
2013-2-17,34,23,11,26,16,6,86,75,58,30.23,29.98,11,4,16,0.00
2013-2-18,53,40,28,47,35,24,96,83,70,29.98,29.44,20,12,34,0.26
2013-2-19,27,18,13,24,13,6,88,80,74,30.25,29.65,22,15,34,0.26
2013-2-20,24,16,8,18,11,3,89,80,71,30.41,30.25,10,5,16,0.00
2013-2-21,31,24,16,27,21,13,95,87,81,30.39,29.92,22,8,30,0.00
2013-2-22,35,30,26,34,27,24,98,91,81,29.95,29.80,17,9,24,0.01
2013-2-23,29,26,22,24,21,18,88,82,75,30.00,29.94,12,6,17,0.01
2013-2-24,38,28,16,30,23,14,91,83,64,30.15,29.99,6,2,10,0.00
2013-2-25,42,33,24,37,30,22,95,88,76,30.16,29.89,13,6,17,0.00
2013-2-26,35,34,33,32,31,30,98,92,81,29.89,29.47,24,15,31,0.13
2013-2-27,33,32,31,32,31,30,98,97,94,29.74,29.52,11,6,16,0.04
2013-2-28,36,34,31,34,32,25,97,91,85,30.07,29.74,11,6,15,0.02